Weather History for Springfield, MO

Change the Weather History Date:

Wednesday, August 27, 2014

  Actual Average Record
Temperature  
Mean Temperature 85 °F 76 °F  
Max Temperature 98 °F 88 °F 101 °F (1954)
Min Temperature 71 °F 65 °F 47 °F (1967)
Degree Days  
Heating Degree Days 0 0  
Month to date heating degree days 0 0  
Since 1 June heating degree days 0 9  
Since 1 July heating degree days 0 0  
Cooling Degree Days 20 11  
Month to date cooling degree days 402 357  
Year to date cooling degree days 1181 1145  
Since 1 June cooling degree days 988 1030  
Growing Degree Days 34 (Base 50)    
Moisture  
Dew Point 67 °F    
Average Humidity 59    
Maximum Humidity 84    
Minimum Humidity 34    
Precipitation  
Precipitation T in 0.13 in 2.74 in (1950)
Month to date precipitation 1.18 3.02  
Year to date precipitation 21.19 29.58  
Snow  
Snow 0.00 in - - ()
Month to date snowfall 0.0  
Since 1 June snowfall 0.0  
Since 1 July snowfall 0.0  
Snow Depth 0.00 in    
Sea Level Pressure  
Sea Level Pressure 30.05 in    
Wind  
Wind Speed 6 mph (ESE)    
Max Wind Speed 22 mph    
Max Gust Speed 27 mph    
Visibility 10 miles    
Events      
T = Trace of Precipitation, MM = Missing Value Source: NWS Daily Summary

Daily Weather History Graph

Daily Weather History Graph

Search for Another Location

Airport:

Trip Planner

Search our weather history database for the weather conditions in past years. The results will help you decide how hot, cold, wet, or windy it might be!

Date:

Astronomy

Aug. 27, 2014 Rise Set
Actual Time 6:40 AM CDT 7:49 PM CDT
Civil Twilight 6:13 AM CDT 8:16 PM CDT
Nautical Twilight 5:40 AM CDT 8:48 PM CDT
Astronomical Twilight 5:07 AM CDT 9:21 PM CDT
Moon 8:33 AM CDT (8/27) 8:46 PM CDT (8/27)
Length of Visible Light 14h 03m
Length of Day
13h 09m
Waxing Crescent, 4% of the Moon is Illuminated
Aug 27
Waxing Crescent
Sep 2
First Quarter
Sep 8
Full
Sep 15
Last Quarter
Sep 24
New

Hourly Weather History & Observations

Time (CDT) Temp. Heat Index Dew Point Humidity Pressure Visibility Wind Dir Wind Speed Gust Speed Precip Events Conditions
12:52 AM 73.0 °F - 68.0 °F 84% 30.06 in 10.0 mi NNE 3.5 mph - N/A   Clear
1:52 AM 73.9 °F - 68.0 °F 82% 30.06 in 10.0 mi NE 4.6 mph - N/A   Clear
2:52 AM 72.0 °F - 66.9 °F 84% 30.05 in 10.0 mi Calm Calm - N/A   Clear
3:52 AM 73.4 °F - 66.2 °F 78% 30.10 in 10.0 mi SSE 9.2 mph - N/A   Clear
4:52 AM 72.0 °F - 66.9 °F 84% 30.05 in 10.0 mi Calm Calm - N/A   Clear
5:52 AM 71.1 °F - 66.0 °F 84% 30.05 in 10.0 mi South 4.6 mph - N/A   Clear
6:52 AM 71.6 °F - 66.2 °F 83% 30.10 in 10.0 mi South 5.8 mph - N/A   Clear
7:52 AM 75.9 °F - 68.0 °F 76% 30.08 in 10.0 mi SSE 6.9 mph - N/A   Clear
8:52 AM 80.1 °F 82.9 °F 69.1 °F 69% 30.09 in 10.0 mi South 5.8 mph - N/A   Clear
9:52 AM 84.9 °F 88.8 °F 69.1 °F 59% 30.10 in 10.0 mi West 6.9 mph - N/A   Clear
10:52 AM 88.0 °F 92.9 °F 70.0 °F 55% 30.10 in 10.0 mi NW 6.9 mph - N/A   Clear
11:52 AM 91.0 °F 96.6 °F 70.0 °F 50% 30.09 in 10.0 mi Variable 4.6 mph - N/A   Clear
12:52 PM 93.9 °F 96.1 °F 64.9 °F 38% 30.06 in 10.0 mi NW 4.6 mph - N/A   Clear
1:52 PM 96.8 °F 100.7 °F 66.2 °F 37% 30.09 in 10.0 mi WNW 5.8 mph - N/A   Scattered Clouds
2:52 PM 95.0 °F 95.6 °F 62.1 °F 33% 30.02 in 10.0 mi Variable 4.6 mph - N/A   Clear
3:52 PM 93.2 °F 94.1 °F 62.6 °F 36% 30.04 in 10.0 mi West 4.6 mph - N/A   Partly Cloudy
4:52 PM 87.8 °F 90.4 °F 66.2 °F 49% 30.05 in 10.0 mi NE 16.1 mph - N/A   Mostly Cloudy
5:52 PM 84.9 °F 88.2 °F 68.0 °F 57% 30.00 in 10.0 mi NNE 6.9 mph - 0.00 in   Mostly Cloudy
6:52 PM 84.9 °F 88.2 °F 68.0 °F 57% 29.98 in 10.0 mi ENE 6.9 mph - N/A   Scattered Clouds
7:52 PM 82.9 °F 85.4 °F 66.9 °F 58% 29.99 in 10.0 mi NE 6.9 mph - N/A   Clear
8:52 PM 81.0 °F 82.7 °F 64.9 °F 58% 30.01 in 10.0 mi East 9.2 mph - N/A   Partly Cloudy
9:52 PM 80.1 °F 82.3 °F 66.9 °F 64% 30.02 in 10.0 mi ESE 5.8 mph - N/A   Mostly Cloudy
10:52 PM 79.0 °F - 68.0 °F 69% 30.02 in 10.0 mi SE 8.1 mph - N/A   Clear
11:52 PM 78.1 °F - 68.0 °F 71% 30.01 in 10.0 mi South 8.1 mph - N/A   Clear